PST,Max TemperatureF,Mean TemperatureF,Min TemperatureF,Max Dew PointF,MeanDew PointF,Min DewpointF,Max Humidity, Mean Humidity, Min Humidity, Max Sea Level PressureIn, Mean Sea Level PressureIn, Min Sea Level PressureIn, Max VisibilityMiles, Mean VisibilityMiles, Min VisibilityMiles, Max Wind SpeedMPH, Mean Wind SpeedMPH, Max Gust SpeedMPH,PrecipitationIn, CloudCover, Events, WindDirDegrees
2012-1-1,85,65,44,52,39,16,93,51,8,30.20,30.15,30.08,10,8,0,21,6,23,0.00,0,Fog,66
2012-1-2,72,57,41,52,45,31,93,66,38,30.28,30.20,30.16,10,8,1,13,3,15,0.00,0,,312
2012-1-3,75,60,45,52,40,29,83,51,19,30.24,30.21,30.17,10,10,10,9,3,12,0.00,0,,276
2012-1-4,90,70,49,49,37,22,66,37,8,30.29,30.23,30.18,10,10,10,15,3,17,0.00,0,,326
2012-1-5,80,64,48,46,36,28,67,43,18,30.19,30.10,30.01,10,10,10,12,3,15,0.00,0,,302
2012-1-6,67,55,42,51,43,33,93,65,37,30.06,30.01,29.98,10,9,6,12,3,14,0.00,0,,260
2012-1-7,69,55,40,51,38,8,92,51,10,30.07,30.02,29.99,10,8,5,25,5,33,0.00,1,,51
2012-1-8,76,62,47,30,18,9,38,24,9,30.20,30.15,30.09,10,10,9,38,14,46,0.00,0,,47
2012-1-9,80,62,43,45,28,17,66,39,11,30.21,30.19,30.13,10,10,10,29,8,36,0.00,0,,65
2012-1-10,68,54,40,51,40,30,93,63,32,30.21,30.14,30.09,10,10,6,12,3,14,0.00,0,,232
2012-1-11,66,54,41,48,41,34,83,63,42,30.09,30.05,30.01,10,10,10,9,3,14,0.00,0,,305
2012-1-12,78,64,49,40,17,2,77,42,7,30.09,30.04,30.00,10,10,6,26,12,31,0.00,0,,54
2012-1-13,79,65,50,24,6,-1,30,18,5,30.19,30.14,30.10,10,10,9,28,14,35,0.00,0,,67
2012-1-14,69,56,42,53,34,15,100,59,18,30.20,30.15,30.12,10,10,10,12,3,14,0.00,0,,36
2012-1-15,66,54,42,53,40,22,100,66,31,30.16,30.12,30.08,10,10,6,16,4,22,T,5,Rain,230
2012-1-16,59,52,44,59,51,44,100,90,80,30.25,30.16,30.10,10,9,5,14,5,17,0.00,3,,77
2012-1-17,59,50,40,50,43,36,100,76,51,30.35,30.30,30.24,10,10,10,12,3,16,0.00,3,,250
2012-1-18,63,50,36,48,42,34,100,73,46,30.36,30.28,30.20,10,10,10,9,3,13,0.00,0,,280
2012-1-19,64,50,36,55,44,34,100,80,60,30.19,30.12,30.07,10,10,10,14,4,16,0.00,0,,212
2012-1-20,62,54,45,55,51,45,100,80,60,30.17,30.09,30.06,10,6,1,12,7,14,0.07,5,Rain,109
2012-1-21,64,56,47,56,52,42,100,74,48,30.13,30.02,29.96,10,5,2,31,12,38,0.84,6,Rain,236
2012-1-22,61,52,42,51,45,38,89,72,55,30.22,30.16,30.14,10,10,9,13,4,15,0.00,2,,76
2012-1-23,57,52,46,52,50,46,96,88,80,30.13,30.00,29.89,10,7,2,15,5,20,0.69,6,Rain,40
2012-1-24,69,57,44,50,45,42,100,73,45,30.27,30.18,30.05,10,9,2,16,5,18,0.00,0,,356
2012-1-25,82,64,46,50,44,40,77,51,25,30.26,30.20,30.14,10,10,10,20,5,23,0.00,0,,317
2012-1-26,78,63,47,56,50,43,89,65,41,30.15,30.09,30.02,10,10,10,12,3,14,0.00,0,,264
2012-1-27,77,62,47,50,36,18,93,54,14,30.16,30.06,30.01,10,10,10,38,17,48,0.00,0,,62
2012-1-28,77,70,63,26,17,11,16,14,12,30.25,30.20,30.14,10,10,10,44,24,56,0.00,0,,63
2012-1-29,80,63,46,35,24,11,65,39,12,30.24,30.17,30.09,10,10,10,25,9,31,0.00,0,,73
2012-1-30,67,54,40,53,41,29,93,61,28,30.07,30.03,29.99,10,10,10,13,2,16,0.00,0,,252
2012-1-31,63,52,41,50,45,38,96,76,56,30.17,30.09,30.01,10,9,7,17,5,20,0.00,1,,325